Lid_Strength_Index
5 5 5 7 8 6 9 9 11 9 9 6 5 5 5 4 4 4 4 3 3 3 2 2 2 2 2 2 2 1 1 1
5 5 5 6 6 9 9 13 14 11 10 11 8 6 5 5 5 4 4 3 3 3 2 2 2 2 1 2 2 1 1 1
6 7 7 7 8 7 8 9 12 12 11 6 7 5 6 6 5 4 4 4 3 3 2 2 2 2 2 2 2 2 1 1
8 6 5 6 7 7 11 11 10 10 11 6 5 6 5 6 5 4 4 4 3 3 2 2 2 2 2 2 2 1 1 1
9 7 6 7 7 7 7 8 10 12 10 6 5 6 5 6 5 4 4 4 3 3 2 3 2 2 2 2 2 1 1 1
11 9 7 9 8 7 8 10 11 10 9 8 8 7 7 6 5 4 4 4 4 3 3 2 2 2 2 2 2 1 1 1
7 7 7 7 8 8 8 8 9 8 9 7 7 8 7 5 5 5 4 4 4 4 3 3 2 2 2 1 2 1 2 2
9 7 7 8 7 7 7 7 7 7 8 5 5 5 7 7 5 5 5 4 4 3 3 3 2 2 2 2 1 1 2 2
11 8 8 10 8 7 7 6 7 9 6 6 6 6 5 5 5 5 4 4 4 3 3 3 2 2 2 2 1 2 2 2
11 9 14 8 5 6 7 6 6 6 7 6 6 5 4 4 5 4 4 4 3 3 3 2 2 2 1 2 2 2 2 2
11 12 9 8 6 7 8 8 6 7 6 6 5 5 5 4 4 4 3 3 3 2 2 2 2 2 1 2 2 2 2 2
10 13 14 9 6 5 5 10 6 6 6 6 5 9 7 4 3 3 3 2 2 2 2 2 2 2 2 2 2 3 2 2
10 11 9 7 6 5 11 11 5 5 5 5 7 5 4 3 3 3 2 2 2 2 2 2 1 2 3 2 3 2 1 1
10 12 14 6 6 9 7 5 5 4 4 5 4 4 4 3 3 3 3 2 2 2 2 2 1 2 3 3 2 1 1 2
9 10 6 4 5 4 4 5 5 5 4 4 4 4 3 3 3 3 2 2 2 2 2 2 1 2 3 2 2 1 2 2
8 6 6 5 4 4 4 4 4 3 3 3 4 4 4 4 3 3 2 2 2 2 2 2 2 1 2 1 1 2 2 2
8 6 6 5 4 4 4 4 4 3 3 3 4 4 3 4 3 3 2 2 2 2 2 2 2 2 1 1 2 2 2 2
10 6 7 6 4 4 4 5 4 4 4 3 4 4 3 4 3 3 3 2 2 2 2 2 2 2 2 1 1 2 2 3
7 4 5 4 4 3 4 4 4 3 3 4 3 3 3 3 3 3 3 2 3 2 2 2 2 2 1 1 1 3 4 5